Tracking 25620 objects as of 18-May-2022
HD Live streaming from Space Station
objects crossing your sky now

WORLDVIEW 2 DEB

Track WORLDVIEW 2 DEB now!
10-day predictions


NORAD ID: 43392
Int'l Code: 2009-055T
Perigee: 677.2 km
Apogee: 694.5 km
Inclination: 98.6 °
Period: 98.3 minutes
Semi major axis: 7056 km
RCS: Unknown
Launch date: October 8, 2009
Source: United States (US)
Launch site: AIR FORCE WESTERN TEST RANGE (AFWTR)

Note: This is SATELLITE DEBRIS
aabbcc
Your satellite tracking list
Your tracking list is empty




NASA's NSSDC Master Catalog

Two Line Element Set (TLE):
1 43392U 09055T   22137.82795583  .00096510  00000-0  17948-1 0  9993
2 43392  98.5881 268.2178 0012277  97.7039 262.5557 14.64492230301449
Source of the keplerian elements: AFSPC